[[{"header":{"parameterUnit":"m.s-1","parameterCategory":1,"la1":30.2991,"la2":30.254,"lo1":-89.0895,"lo2":-89.0444,"dy":0.0017,"dx":0.0017,"nx":28,"ny":28,"refTime":"2023-11-21T03:00:00:Z","depth":0,"parameterNumber":2,"parameterNumberName":"U-component_of_WINDS"},"data":[0,0,0,0,0,0,0,0,0,0,0,0,0,0,0,0,0,0,0,0,0,0,0,0,0,0,0,0,0,0,0,0,0,0,0,0,0,0,0,0,0,0,0,0,0,0,0,0,0,0,0,0,0,0,0,0,0,0,-1.7228,-1.7231,0,-1.7477,-1.748,-1.7483,-1.7608,-1.7609,-1.7609,-1.7609,-1.7871,-1.7878,-1.7885,0,0,0,0,0,0,0,0,0,0,0,0,0,-1.6866,-1.6872,-1.7228,-1.7231,-1.7234,-1.7477,-1.748,-1.7484,-1.7608,-1.7609,-1.7609,-1.7609,-1.7869,-1.7877,-1.7886,0,0,0,0,0,0,0,0,0,0,0,0,0,-1.706,-1.6874,-1.7227,-1.7325,-1.7337,-1.7476,-1.7481,-1.7485,-1.7608,-1.7609,-1.7609,-1.7609,-1.7866,-1.7876,-1.7887,-1.795,0,0,-1.7919,-1.7923,0,0,0,0,0,0,0,0,-1.7049,-1.7074,-1.7308,-1.7319,-1.7332,-1.7512,-1.7449,-1.7641,-1.7608,-1.7505,-1.7609,-1.7609,-1.7752,-1.7772,-1.7819,-1.7962,-1.7974,-1.792,-1.7926,-1.793,-1.7933,0,0,0,0,0,0,0,-1.7036,-1.7064,-1.7327,-1.7311,-1.7326,-1.7359,-1.7387,-1.7486,-1.7626,-1.7514,-1.7524,-1.7551,-1.7759,-1.7808,-1.7826,-1.7978,-1.7919,-1.7929,-1.7935,-1.7939,-1.8186,-1.8186,0,0,0,0,0,0,-1.7005,-1.7051,-1.7319,-1.7334,-1.7187,-1.7365,-1.7396,-1.7454,-1.7625,-1.7651,-1.7551,-1.7556,-1.7791,-1.7814,-1.7836,-1.7922,-1.793,-1.794,-1.7946,-1.8186,-1.8186,-1.8187,0,0,0,0,0,0,-1.6997,-1.7028,-1.7309,-1.7196,-1.7234,-1.7372,-1.7435,-1.7459,-1.7509,-1.7653,-1.7679,-1.7576,-1.7792,-1.7821,-1.792,-1.7932,-1.7945,-1.7954,-1.8186,-1.8186,-1.8186,-1.8093,0,0,0,0,0,0,-1.6986,-1.7024,-1.7048,-1.7195,-1.7239,-1.7387,-1.7436,-1.7464,-1.7526,-1.7535,-1.7683,-1.7708,-1.7794,-1.7904,-1.7931,-1.7947,-1.7962,-1.8185,-1.8186,-1.8186,-1.8096,-1.809,-1.8085,0,0,0,0,0,-1.6973,-1.7014,-1.7049,-1.708,-1.7272,-1.7387,-1.7413,-1.751,-1.7526,-1.7552,-1.7645,-1.7703,-1.7926,-1.7913,-1.7944,-1.7964,-1.8185,-1.8186,-1.8186,-1.8098,-1.8091,-1.8085,0,0,0,0,0,0,-1.6868,-1.7035,-1.7076,-1.7165,-1.726,-1.7408,-1.7445,-1.7499,-1.7595,-1.76,-1.7718,-1.775,-1.7839,-1.7912,-1.7894,-1.8034,-1.8061,-1.8068,-1.7984,-1.7978,-1.7973,-1.7955,-1.7971,0,0,0,0,0,-1.6854,-1.6931,-1.7075,-1.714,-1.7185,-1.7306,-1.736,-1.7426,-1.7531,-1.7573,-1.7673,-1.7774,-1.7868,-1.7927,-1.8021,-1.8106,-1.8141,-1.8135,-1.813,-1.8125,-1.813,-1.8181,-1.818,-1.8189,-1.8189,-1.8189,0,0,-1.6829,-1.6929,-1.6972,-1.7121,-1.7203,-1.7283,-1.734,-1.7422,-1.7483,-1.7587,-1.7686,-1.7762,-1.7884,-1.7976,-1.8022,-1.8039,-1.8135,-1.8126,-1.8121,-1.8129,-1.8182,-1.8181,-1.818,-1.8189,-1.8189,-1.8189,0,0,-1.6823,-1.6906,-1.6969,-1.7049,-1.7171,-1.7251,-1.7266,-1.7406,-1.7459,-1.756,-1.7639,-1.7715,-1.7873,-1.7956,-1.8019,-1.8042,-1.81,-1.807,-1.8044,-1.8092,-1.8092,-1.8092,-1.8101,-1.8103,-1.8074,-1.8074,-1.8074,0,-1.6776,-1.6897,-1.6995,-1.7072,-1.7136,-1.723,-1.7296,-1.737,-1.7518,-1.7561,-1.7577,-1.7777,-1.7866,-1.7979,-1.7984,-1.8032,-1.8054,-1.8054,-1.8083,-1.8084,-1.8086,-1.8096,-1.8099,-1.807,-1.807,-1.8071,-1.8071,0,-1.6834,-1.6916,-1.6953,-1.709,-1.7158,-1.7229,-1.734,-1.7397,-1.7456,-1.7535,-1.7637,-1.7746,-1.7863,-1.7895,-1.7955,-1.8017,-1.8024,-1.806,-1.809,-1.8079,-1.809,-1.8095,-1.8063,-1.8065,-1.8066,-1.8067,0,0,-1.6771,-1.6959,-1.6971,-1.7034,-1.7175,-1.7242,-1.7318,-1.743,-1.7477,-1.7575,-1.7643,-1.7774,-1.7808,-1.7879,-1.7949,-1.7991,-1.8003,-1.8023,-1.8028,-1.8016,-1.8079,-1.8051,-1.8054,-1.8041,-1.8042,-1.8043,-1.8069,0,-1.6785,-1.6922,-1.7012,-1.7115,-1.7193,-1.7283,-1.7349,-1.7444,-1.7519,-1.7598,-1.7683,-1.7773,-1.7811,-1.7854,-1.79,-1.7992,-1.8018,-1.7991,-1.8108,-1.8111,-1.8075,-1.806,-1.8032,-1.8051,-1.8074,-1.8075,-1.8076,0,-1.6821,-1.6913,-1.7022,-1.7154,-1.719,-1.7248,-1.7357,-1.7431,-1.7541,-1.7593,-1.767,-1.7741,-1.7827,-1.7848,-1.7968,-1.7948,-1.8001,-1.8053,-1.8057,-1.8072,-1.8093,-1.8077,-1.8059,-1.8062,-1.8084,-1.8083,-1.8083,0,-1.6764,-1.6917,-1.7002,-1.7053,-1.7208,-1.7246,-1.7313,-1.7423,-1.7484,-1.7581,-1.7622,-1.7728,-1.7787,-1.7868,-1.7966,-1.7972,-1.8077,-1.8106,-1.8124,-1.8121,-1.8144,-1.8141,-1.8135,-1.8175,-1.8175,-1.8175,-1.8175,0,-1.6772,-1.6836,-1.6978,-1.703,-1.7105,-1.7208,-1.7279,-1.7354,-1.7451,-1.7521,-1.7606,-1.767,-1.7795,-1.7875,-1.7953,-1.8041,-1.8067,-1.8113,-1.8133,-1.8106,-1.81,-1.8143,-1.8145,-1.8176,-1.8176,-1.8175,-1.8175,0,-1.6722,-1.682,-1.6918,-1.7056,-1.7092,-1.7141,-1.726,-1.7316,-1.7394,-1.7482,-1.7509,-1.7633,-1.7732,-1.7837,-1.7972,-1.8025,-1.811,-1.8137,-1.8072,-1.8083,-1.8096,-1.8093,-1.8119,-1.8128,-1.8159,-1.8159,-1.8158,0,-1.6721,-1.6771,-1.6913,-1.6965,-1.7029,-1.7111,-1.7173,-1.7277,-1.7339,-1.7466,-1.7507,-1.7611,-1.77,-1.7855,-1.7959,-1.8063,-1.8094,-1.8096,-1.8111,-1.8082,-1.8096,-1.8092,-1.8098,-1.8091,-1.8091,-1.809,-1.8089,0,-1.6709,-1.6754,-1.6839,-1.694,-1.7011,-1.7096,-1.7186,-1.7224,-1.7346,-1.7411,-1.7511,-1.758,-1.7717,-1.782,-1.7936,-1.8008,-1.807,-1.8083,-1.8093,-1.8067,-1.8027,-1.805,-1.806,-1.8083,-1.8083,-1.8084,-1.8084,-1.8085,-1.6685,-1.6733,-1.684,-1.6932,-1.7009,-1.709,-1.7148,-1.7232,-1.7317,-1.7434,-1.7491,-1.7592,-1.7701,-1.7863,-1.7933,-1.8015,-1.8033,-1.8047,-1.8051,-1.8053,-1.8046,-1.8012,-1.8036,-1.8036,-1.8037,-1.8037,-1.8037,0,-1.6677,-1.675,-1.6832,-1.6953,-1.7025,-1.7073,-1.7174,-1.7232,-1.7318,-1.7413,-1.7498,-1.7614,-1.7714,-1.7825,-1.7932,-1.7976,-1.8007,-1.8001,-1.8,-1.8016,-1.8024,-1.8004,-1.7974,-1.7974,-1.7974,-1.7974,-1.7974,-1.7974,-1.6682,-1.6767,-1.6824,-1.6949,-1.7023,-1.7119,-1.7173,-1.7249,-1.7325,-1.7449,-1.7531,-1.7601,-1.7704,-1.7819,-1.7914,-1.7944,-1.798,-1.7966,-1.8005,-1.801,-1.8015,-1.802,-1.8003,-1.7973,-1.7973,-1.7991,-1.7991,-1.7991]},{"header":{"parameterUnit":"m.s-1","parameterCategory":1,"la1":30.2991,"la2":30.254,"lo1":-89.0895,"lo2":-89.0444,"dy":0.0017,"dx":0.0017,"nx":28,"ny":28,"refTime":"2023-11-21T03:00:00:Z","depth":0,"parameterNumber":3,"parameterNumberName":"V-component_of_WINDS"},"data":[0,0,0,0,0,0,0,0,0,0,0,0,0,0,0,0,0,0,0,0,0,0,0,0,0,0,0,0,0,0,0,0,0,0,0,0,0,0,0,0,0,0,0,0,0,0,0,0,0,0,0,0,0,0,0,0,0,0,7.5585,7.5587,0,7.5831,7.5834,7.5837,7.588,7.5878,7.5876,7.5874,7.612,7.6128,7.6137,0,0,0,0,0,0,0,0,0,0,0,0,0,7.5146,7.5154,7.5585,7.5588,7.5591,7.5831,7.5834,7.5838,7.5881,7.5878,7.5876,7.5873,7.6117,7.6127,7.6137,0,0,0,0,0,0,0,0,0,0,0,0,0,7.5359,7.5156,7.5584,7.5641,7.5649,7.583,7.5835,7.5839,7.5881,7.5878,7.5875,7.5872,7.6114,7.6126,7.6139,7.6278,0,0,7.6178,7.6183,0,0,0,0,0,0,0,0,7.5346,7.5375,7.563,7.5638,7.5647,7.5822,7.577,7.5986,7.5882,7.5793,7.5874,7.5871,7.6023,7.6043,7.6096,7.629,7.63,7.6179,7.6186,7.6192,7.6195,0,0,0,0,0,0,0,7.5332,7.5364,7.5682,7.5633,7.5644,7.5653,7.568,7.5811,7.5922,7.58,7.5804,7.5833,7.6027,7.6083,7.6102,7.6304,7.6178,7.619,7.6197,7.6202,7.6627,7.6631,0,0,0,0,0,0,7.5307,7.5352,7.5674,7.5689,7.5486,7.5664,7.5694,7.5769,7.5921,7.5941,7.5836,7.5834,7.6063,7.6087,7.6111,7.6286,7.6192,7.6204,7.6211,7.6624,7.6628,7.6632,0,0,0,0,0,0,7.5298,7.5336,7.5664,7.5522,7.5564,7.5674,7.5758,7.5775,7.5832,7.5947,7.5967,7.5873,7.6062,7.6093,7.6237,7.6295,7.6209,7.6221,7.6619,7.6625,7.663,7.6637,0,0,0,0,0,0,7.5285,7.5332,7.5387,7.5523,7.5572,7.5788,7.5762,7.5782,7.5855,7.5855,7.5988,7.6007,7.6062,7.6218,7.625,7.6311,7.6231,7.6615,7.6622,7.6628,7.6632,7.6642,7.665,0,0,0,0,0,7.5269,7.5377,7.539,7.5429,7.5644,7.5792,7.582,7.5883,7.5859,7.5915,7.5989,7.6003,7.6283,7.6233,7.6269,7.6335,7.6611,7.662,7.6628,7.6628,7.664,7.665,0,0,0,0,0,0,7.5243,7.5396,7.5412,7.5567,7.5667,7.5799,7.5871,7.5893,7.5999,7.5995,7.6067,7.6097,7.6238,7.63,7.6241,7.6479,7.6445,7.6461,7.6433,7.6446,7.6455,7.6437,7.6241,0,0,0,0,0,7.5255,7.5365,7.5492,7.5617,7.5666,7.576,7.5827,7.5867,7.5972,7.6014,7.6098,7.6198,7.6309,7.638,7.6489,7.6641,7.6671,7.6704,7.6713,7.672,7.6733,7.6821,7.6837,7.6659,7.6659,7.6659,0,0,7.5281,7.5379,7.5443,7.5614,7.5696,7.5807,7.5795,7.5912,7.5995,7.6031,7.6174,7.6239,7.6355,7.6505,7.6575,7.6561,7.6789,7.6731,7.6735,7.6745,7.6831,7.6847,7.6862,7.6665,7.6664,7.6663,0,0,7.5387,7.5471,7.5586,7.5669,7.5794,7.5856,7.5884,7.6014,7.606,7.6205,7.6235,7.6333,7.6522,7.6605,7.6671,7.681,7.6827,7.6843,7.6892,7.6976,7.699,7.7003,7.7054,7.7072,7.6855,7.6855,7.6856,0,7.5404,7.5574,7.5641,7.5759,7.5834,7.5874,7.5991,7.6067,7.6219,7.6269,7.6252,7.6493,7.6573,7.6744,7.6778,7.683,7.6864,7.6829,7.6983,7.6996,7.7009,7.7059,7.7078,7.6857,7.6857,7.6857,7.6856,0,7.5589,7.5707,7.5784,7.5935,7.6017,7.6133,7.6217,7.6293,7.6326,7.639,7.6538,7.6636,7.6766,7.6809,7.6841,7.6985,7.6974,7.6969,7.6937,7.7027,7.7075,7.7094,7.6859,7.6858,7.6858,7.6858,0,0,7.5684,7.5873,7.59,7.597,7.6112,7.6203,7.6321,7.6451,7.6516,7.6619,7.672,7.6881,7.6878,7.6954,7.6995,7.7069,7.7176,7.7056,7.706,7.7076,7.7342,7.7346,7.7367,7.7187,7.7191,7.7194,7.7333,0,7.5808,7.6023,7.6088,7.6267,7.6378,7.6418,7.6521,7.6618,7.6681,7.6782,7.685,7.6964,7.6951,7.6997,7.7072,7.7147,7.723,7.7137,7.7281,7.7286,7.7253,7.7392,7.7397,7.7524,7.7352,7.7355,7.7358,0,7.5981,7.6093,7.6284,7.6415,7.6463,7.6555,7.6681,7.6777,7.6888,7.6929,7.7014,7.7051,7.7174,7.7135,7.7307,7.7242,7.7305,7.735,7.7357,7.7374,7.7328,7.7415,7.7565,7.7585,7.7388,7.7385,7.7383,0,7.6035,7.6231,7.6373,7.6431,7.6586,7.6649,7.6716,7.6825,7.69,7.7009,7.7058,7.7179,7.7245,7.7337,7.7405,7.7369,7.7571,7.7537,7.7608,7.7607,7.765,7.7647,7.7814,7.7687,7.7687,7.7686,7.7686,0,7.6167,7.6283,7.6399,7.6486,7.6617,7.669,7.6817,7.6886,7.6982,7.7082,7.7123,7.7215,7.7299,7.7402,7.7455,7.759,7.7619,7.7655,7.7668,7.7653,7.7649,7.7696,7.769,7.7692,7.769,7.7689,7.7689,0,7.6249,7.6331,7.6488,7.6623,7.666,7.6751,7.6866,7.6951,7.7016,7.7142,7.7175,7.7276,7.7401,7.7477,7.7633,7.7669,7.7819,7.7827,7.7782,7.7789,7.7857,7.785,7.8062,7.8095,7.7944,7.7945,7.7946,0,7.633,7.6421,7.6567,7.6638,7.6707,7.6821,7.6898,7.6973,7.7052,7.7187,7.7256,7.7384,7.749,7.7686,7.7772,7.7892,7.7905,7.7972,7.7924,7.7906,7.7909,7.7904,7.7914,7.798,7.7981,7.7982,7.7983,0,7.6464,7.6501,7.6613,7.674,7.6833,7.6935,7.7037,7.7093,7.7185,7.7271,7.7401,7.7483,7.7645,7.7771,7.7899,7.7966,7.7991,7.7997,7.8021,7.8007,7.7978,7.7997,7.7806,7.7992,7.7991,7.7991,7.799,7.799,7.655,7.6633,7.675,7.6874,7.696,7.7055,7.7143,7.722,7.733,7.7469,7.7506,7.7641,7.7751,7.7927,7.7997,7.8103,7.8094,7.8127,7.8135,7.8143,7.8146,7.796,7.8126,7.8126,7.8126,7.8126,7.8126,0,7.6688,7.6766,7.6879,7.7023,7.7121,7.7137,7.7252,7.7331,7.7451,7.7553,7.7658,7.7807,7.793,7.8027,7.8153,7.8219,7.8234,7.825,7.8247,7.8263,7.8146,7.8115,7.8237,7.8237,7.8237,7.8237,7.8237,7.8237,7.6772,7.6916,7.6967,7.7153,7.7229,7.7365,7.7429,7.7517,7.76,7.7765,7.7869,7.7932,7.8032,7.8167,7.828,7.8305,7.8351,7.8365,7.8393,7.8282,7.827,7.8259,7.823,7.8374,7.8374,7.8501,7.8502,7.8503]}]]